Hanamaulu, HI

2:13 PM HST on February 08, 2016 (GMT -1000)
Lihue

Weather History for PHLI - April, 2013

Change the Weather History Date:

Saturday, April 20, 2013

  Actual Average Record
Temperature  
Mean Temperature 75 °F 74 °F  
Max Temperature 79 °F 79 °F 84 °F (1981)
Min Temperature 71 °F 69 °F 58 °F (1966)
Degree Days  
Heating Degree Days 0 0  
Month to date heating degree days 0 0  
Since 1 July heating degree days 0 0  
Cooling Degree Days 10 9  
Month to date cooling degree days 139 179  
Year to date cooling degree days 679 813  
Growing Degree Days 25 (Base 50)    
Moisture  
Dew Point 70 °F    
Average Humidity 84    
Maximum Humidity 93    
Minimum Humidity 74    
Precipitation  
Precipitation 0.00 in 0.06 in 1.15 in (2009)
Month to date precipitation 1.56 1.64  
Year to date precipitation 12.73 13.16  
Snow  
Snow 0.00 in - - ()
Month to date snowfall 0.0  
Since 1 July snowfall 0.0  
Snow Depth 0.00 in    
Sea Level Pressure  
Sea Level Pressure 30.06 in    
Wind  
Wind Speed 9 mph (SE)    
Max Wind Speed 15 mph    
Max Gust Speed -    
Visibility 10 miles    
Events      
T = Trace of Precipitation, MM = Missing Value Source: NWS Daily Summary

Daily Weather History Graph

Daily Weather History Graph

Search for Another Location

Airport or City:

Trip Planner

Search our weather history database for the weather conditions in past years. The results will help you decide how hot, cold, wet, or windy it might be!

Date:

Astronomy

Apr. 20, 2013 Rise Set
Actual Time 6:13 AM HST 6:59 PM HST
Civil Twilight 5:50 AM HST 7:22 PM HST
Nautical Twilight 5:23 AM HST 7:49 PM HST
Astronomical Twilight 4:55 AM HST 8:16 PM HST
Moon 2:29 PM HST (4/20) 2:31 AM HST (4/20)
Length of Visible Light 13h 32m
Length of Day
12h 46m
Waxing Gibbous, 73% of the Moon is Illuminated
Apr 20
Waxing Gibbous
Apr 25
Full
May 2
Last Quarter
May 9
New
May 17
First Quarter

Hourly Weather History & Observations

Time (HST) Temp. Dew Point Humidity Pressure Visibility Wind Dir Wind Speed Gust Speed Precip Events Conditions
12:53 AM 72.7 °F 69.1 °F 88% 30.09 in 10.0 mi East 15.0 mph - N/A   Partly Cloudy
1:53 AM 72.9 °F 69.1 °F 88% 30.07 in 10.0 mi ESE 13.8 mph - N/A   Mostly Cloudy
2:29 AM 73.4 °F 69.8 °F 88% 30.07 in 10.0 mi ESE 11.5 mph - N/A   Overcast
2:46 AM 73.4 °F 69.8 °F 88% 30.06 in 10.0 mi ESE 9.2 mph - N/A   Scattered Clouds
2:53 AM 72.7 °F 69.1 °F 88% 30.05 in 10.0 mi ESE 9.2 mph - N/A   Partly Cloudy
3:48 AM - - N/A% 30.05 in 10.0 mi ESE 6.9 mph - N/A   Mostly Cloudy
3:53 AM - - N/A% 30.05 in 10.0 mi ESE 6.9 mph - N/A   Mostly Cloudy
4:53 AM - - N/A% 30.05 in 10.0 mi ESE 5.8 mph - N/A   Overcast
5:43 AM - - N/A% 30.06 in 10.0 mi ESE 6.9 mph - N/A   Overcast
5:53 AM 71.6 °F 69.8 °F 94% 30.06 in 10.0 mi SE 5.8 mph - N/A   Mostly Cloudy
6:53 AM 72.0 °F 69.1 °F 91% 30.07 in 10.0 mi Calm Calm - N/A   Mostly Cloudy
7:53 AM 74.7 °F 70.0 °F 85% 30.08 in 10.0 mi SE 6.9 mph - N/A   Overcast
8:21 AM 75.2 °F 69.8 °F 83% 30.09 in 10.0 mi ESE 4.6 mph - N/A   Partly Cloudy
8:53 AM 74.8 °F 70.0 °F 85% 30.10 in 10.0 mi East 6.9 mph - N/A   Mostly Cloudy
9:31 AM 75.2 °F 69.8 °F 83% 30.10 in 10.0 mi East 6.9 mph - N/A   Mostly Cloudy
9:39 AM 75.2 °F 69.8 °F 83% 30.10 in 10.0 mi ESE 8.1 mph - N/A   Scattered Clouds
9:53 AM 75.2 °F 70.0 °F 84% 30.10 in 10.0 mi ESE 6.9 mph - N/A   Partly Cloudy
10:53 AM 77.0 °F 70.0 °F 79% 30.10 in 10.0 mi SE 9.2 mph - N/A   Clear
11:53 AM 77.0 °F 69.1 °F 76% 30.09 in 10.0 mi ESE 10.4 mph - N/A   Partly Cloudy
12:53 PM 77.0 °F 70.0 °F 79% 30.06 in 10.0 mi SSE 10.4 mph - N/A   Partly Cloudy
1:53 PM 78.8 °F 70.0 °F 74% 30.04 in 10.0 mi SSE 12.7 mph - N/A   Scattered Clouds
2:53 PM 78.8 °F 72.9 °F 82% 30.01 in 10.0 mi South 13.8 mph - N/A   Partly Cloudy
3:53 PM 77.0 °F 70.0 °F 79% 30.01 in 10.0 mi South 11.5 mph - N/A   Scattered Clouds
4:53 PM 75.9 °F 68.0 °F 76% 30.01 in 10.0 mi South 9.2 mph - N/A   Partly Cloudy
5:53 PM 75.9 °F 68.0 °F 76% 30.01 in 10.0 mi SSW 5.8 mph - N/A   Scattered Clouds
6:53 PM 73.9 °F 66.9 °F 79% 30.02 in 10.0 mi SSW 4.6 mph - N/A   Clear
7:53 PM - - N/A% 30.04 in 10.0 mi SSW 5.8 mph - N/A   Clear
8:53 PM - - N/A% 30.06 in 10.0 mi SW 5.8 mph - N/A   Clear
9:53 PM - - N/A% 30.07 in 10.0 mi SSW 4.6 mph - N/A   Clear
10:53 PM - - N/A% 30.07 in 10.0 mi SSW 6.9 mph - N/A   Scattered Clouds
11:53 PM 74.5 °F 68.0 °F 80% 30.04 in 10.0 mi SW 6.9 mph - N/A   Mostly Cloudy